TimeEDT,TemperatureF,Dew PointF,Humidity,Sea Level PressureIn,VisibilityMPH,Wind Direction,Wind SpeedMPH,Gust SpeedMPH,PrecipitationIn,Events,Conditions,WindDirDegrees,DateUTC
12:18 AM,71.6,71.6,100,30.02,8.0,Calm,Calm,-,N/A,,Mostly Cloudy,0,2013-07-10 04:18:00
12:20 AM,71.6,69.8,94,30.01,8.0,Calm,Calm,-,N/A,,Mostly Cloudy,0,2013-07-10 04:20:00
12:24 AM,69.8,69.8,100,30.01,7.0,Calm,Calm,-,N/A,,Mostly Cloudy,0,2013-07-10 04:24:00
12:34 AM,69.8,69.8,100,30.01,8.0,Calm,Calm,-,N/A,,Scattered Clouds,0,2013-07-10 04:34:00
12:58 AM,70.2,70.0,99,30.00,7.0,Calm,Calm,-,N/A,,Clear,0,2013-07-10 04:58:00
1:48 AM,68.0,68.0,100,29.99,2.5,Calm,Calm,-,N/A,,Clear,0,2013-07-10 05:48:00
1:56 AM,68.0,68.0,100,29.99,3.0,Calm,Calm,-,N/A,,Clear,0,2013-07-10 05:56:00
1:58 AM,68.5,68.5,100,29.99,3.0,Calm,Calm,-,N/A,,Clear,0,2013-07-10 05:58:00
2:40 AM,68.0,68.0,100,29.99,2.5,Calm,Calm,-,N/A,,Clear,0,2013-07-10 06:40:00
2:58 AM,68.0,68.0,100,29.98,2.0,Calm,Calm,-,N/A,,Clear,0,2013-07-10 06:58:00
3:06 AM,68.0,68.0,100,29.98,3.0,Calm,Calm,-,N/A,,Clear,0,2013-07-10 07:06:00
3:30 AM,68.0,68.0,100,29.97,2.5,Calm,Calm,-,N/A,,Clear,0,2013-07-10 07:30:00
3:36 AM,68.0,68.0,100,29.97,2.0,Calm,Calm,-,N/A,,Clear,0,2013-07-10 07:36:00
3:44 AM,68.0,68.0,100,29.97,3.0,Calm,Calm,-,N/A,,Clear,0,2013-07-10 07:44:00
3:58 AM,67.3,67.3,100,29.98,4.0,Calm,Calm,-,N/A,,Clear,0,2013-07-10 07:58:00
4:08 AM,68.0,68.0,100,29.98,2.5,Calm,Calm,-,N/A,,Clear,0,2013-07-10 08:08:00
4:44 AM,68.0,68.0,100,29.97,3.0,Calm,Calm,-,N/A,,Clear,0,2013-07-10 08:44:00
4:58 AM,67.5,67.5,100,29.97,3.0,Calm,Calm,-,N/A,,Scattered Clouds,0,2013-07-10 08:58:00
5:02 AM,68.0,68.0,100,29.97,2.5,Calm,Calm,-,N/A,,Scattered Clouds,0,2013-07-10 09:02:00
5:12 AM,68.0,68.0,100,29.97,3.0,Calm,Calm,-,N/A,,Partly Cloudy,0,2013-07-10 09:12:00
5:22 AM,68.0,68.0,100,29.97,2.5,Calm,Calm,-,N/A,,Partly Cloudy,0,2013-07-10 09:22:00
5:26 AM,68.0,68.0,100,29.97,1.8,Calm,Calm,-,N/A,,Clear,0,2013-07-10 09:26:00
5:34 AM,66.2,66.2,100,29.97,1.5,Calm,Calm,-,N/A,,Partly Cloudy,0,2013-07-10 09:34:00
5:42 AM,68.0,68.0,100,29.97,1.8,Calm,Calm,-,N/A,,Partly Cloudy,0,2013-07-10 09:42:00
5:44 AM,68.0,68.0,100,29.97,2.5,Calm,Calm,-,N/A,,Partly Cloudy,0,2013-07-10 09:44:00
5:46 AM,68.0,68.0,100,29.97,3.0,Calm,Calm,-,N/A,,Partly Cloudy,0,2013-07-10 09:46:00
5:52 AM,68.0,68.0,100,29.96,2.0,Calm,Calm,-,N/A,,Partly Cloudy,0,2013-07-10 09:52:00
5:54 AM,68.0,68.0,100,29.96,1.5,Calm,Calm,-,N/A,,Partly Cloudy,0,2013-07-10 09:54:00
5:58 AM,67.1,67.1,100,29.97,1.5,Calm,Calm,-,N/A,,Partly Cloudy,0,2013-07-10 09:58:00
6:02 AM,68.0,68.0,100,29.97,1.8,Calm,Calm,-,N/A,,Partly Cloudy,0,2013-07-10 10:02:00
6:04 AM,68.0,68.0,100,29.97,2.5,Calm,Calm,-,N/A,,Partly Cloudy,0,2013-07-10 10:04:00
6:06 AM,68.0,68.0,100,29.97,3.0,Calm,Calm,-,N/A,,Clear,0,2013-07-10 10:06:00
6:20 AM,68.0,68.0,100,29.97,2.5,Calm,Calm,-,N/A,,Clear,0,2013-07-10 10:20:00
6:28 AM,68.0,68.0,100,29.97,3.0,Calm,Calm,-,N/A,,Clear,0,2013-07-10 10:28:00
6:29 AM,68.0,68.0,100,29.97,3.0,Calm,Calm,-,N/A,,Partly Cloudy,0,2013-07-10 10:29:00
6:45 AM,69.8,69.8,100,29.97,3.0,Calm,Calm,-,N/A,,Mostly Cloudy,0,2013-07-10 10:45:00
6:58 AM,69.6,69.6,100,29.97,4.0,Calm,Calm,-,N/A,,Mostly Cloudy,0,2013-07-10 10:58:00
7:43 AM,71.6,71.6,100,29.98,4.0,Calm,Calm,-,N/A,Rain,Light Rain,0,2013-07-10 11:43:00
7:45 AM,71.6,71.6,100,29.98,4.0,Calm,Calm,-,N/A,,Mostly Cloudy,0,2013-07-10 11:45:00
7:58 AM,71.4,71.4,100,29.98,3.0,Calm,Calm,-,0.00,,Mostly Cloudy,0,2013-07-10 11:58:00
7:59 AM,71.6,71.6,100,29.98,3.0,Calm,Calm,-,N/A,Rain,Light Rain,0,2013-07-10 11:59:00
8:01 AM,71.6,71.6,100,29.98,2.5,Calm,Calm,-,N/A,Rain,Light Rain,0,2013-07-10 12:01:00
8:09 AM,71.6,71.6,100,29.98,3.0,Calm,Calm,-,N/A,Rain,Light Rain,0,2013-07-10 12:09:00
8:21 AM,71.6,71.6,100,29.98,2.5,Calm,Calm,-,N/A,Rain,Light Rain,0,2013-07-10 12:21:00
8:42 AM,71.6,71.6,100,29.98,2.0,Calm,Calm,-,N/A,,Scattered Clouds,0,2013-07-10 12:42:00
8:43 AM,71.6,71.6,100,29.98,2.0,Calm,Calm,-,N/A,Rain,Light Rain,0,2013-07-10 12:43:00
8:49 AM,73.4,71.6,94,29.98,3.0,Calm,Calm,-,N/A,Rain,Light Rain,0,2013-07-10 12:49:00
8:58 AM,73.0,72.7,99,29.98,3.0,Calm,Calm,-,0.00,Rain,Light Rain,0,2013-07-10 12:58:00
9:00 AM,73.4,73.4,100,29.98,2.5,Calm,Calm,-,N/A,Rain,Light Rain,0,2013-07-10 13:00:00
9:08 AM,73.4,73.4,100,29.98,3.0,Calm,Calm,-,N/A,Rain,Light Rain,0,2013-07-10 13:08:00
9:10 AM,73.4,73.4,100,29.98,3.0,Calm,Calm,-,N/A,,Partly Cloudy,0,2013-07-10 13:10:00
9:13 AM,73.4,73.4,100,29.98,3.0,Calm,Calm,-,N/A,,Light Drizzle,0,2013-07-10 13:13:00
9:19 AM,73.4,73.4,100,29.98,2.5,Calm,Calm,-,N/A,Rain,Light Rain,0,2013-07-10 13:19:00
9:31 AM,73.4,73.4,100,29.98,1.5,Calm,Calm,-,N/A,Rain,Light Rain,0,2013-07-10 13:31:00
9:33 AM,73.4,73.4,100,29.98,1.0,Calm,Calm,-,N/A,Rain,Heavy Rain,0,2013-07-10 13:33:00
9:41 AM,73.4,73.4,100,29.98,1.2,Calm,Calm,-,N/A,Rain,Light Rain,0,2013-07-10 13:41:00
9:43 AM,73.4,73.4,100,29.98,2.5,Calm,Calm,-,N/A,Rain,Light Rain,0,2013-07-10 13:43:00
9:44 AM,73.4,73.4,100,29.98,2.5,Calm,Calm,-,N/A,,Scattered Clouds,0,2013-07-10 13:44:00
9:46 AM,73.4,73.4,100,29.98,3.0,Calm,Calm,-,N/A,,Scattered Clouds,0,2013-07-10 13:46:00
9:58 AM,73.9,73.6,99,29.98,3.0,Variable,4.6,-,0.09,,Partly Cloudy,0,2013-07-10 13:58:00
10:02 AM,73.4,73.4,100,29.98,4.0,Calm,Calm,-,N/A,,Partly Cloudy,0,2013-07-10 14:02:00
10:18 AM,73.4,73.4,100,29.98,4.0,Calm,Calm,-,N/A,,Light Drizzle,0,2013-07-10 14:18:00
10:29 AM,75.2,73.4,94,29.98,6.0,Calm,Calm,-,N/A,,Partly Cloudy,0,2013-07-10 14:29:00
10:35 AM,75.2,73.4,94,29.98,6.0,Calm,Calm,-,N/A,,Drizzle,0,2013-07-10 14:35:00
10:44 AM,75.2,75.2,100,29.98,6.0,Calm,Calm,-,N/A,,Clear,360,2013-07-10 14:44:00
10:56 AM,75.2,75.2,100,29.97,7.0,Calm,Calm,-,N/A,,Partly Cloudy,0,2013-07-10 14:56:00
11:56 AM,75.2,73.4,94,29.96,10.0,North,1.2,-,N/A,,Scattered Clouds,10,2013-07-10 15:56:00
12:56 PM,80.6,71.6,74,29.94,10.0,Variable,6.9,-,N/A,,Mostly Cloudy,0,2013-07-10 16:56:00
1:56 PM,82.4,71.6,70,29.91,10.0,WNW,4.6,-,N/A,,Mostly Cloudy,290,2013-07-10 17:56:00
3:58 PM,86.0,69.6,58,29.87,10.0,WSW,6.9,-,N/A,,Clear,250,2013-07-10 19:58:00
4:55 PM,86.0,71.6,62,29.88,7.0,WSW,6.9,-,N/A,,Scattered Clouds,240,2013-07-10 20:55:00
4:58 PM,-9999,-9999,N/A,-9999,-9999.0,Calm,Calm,-,N/A,,Unknown,0,2013-07-10 20:58:00
5:13 PM,86.0,71.6,62,29.85,10.0,WSW,4.6,-,N/A,,Mostly Cloudy,240,2013-07-10 21:13:00
5:58 PM,87.1,69.6,56,29.85,10.0,Calm,Calm,-,N/A,,Scattered Clouds,0,2013-07-10 21:58:00
6:58 PM,84.4,71.1,64,29.86,10.0,Calm,Calm,-,N/A,,Partly Cloudy,0,2013-07-10 22:58:00
7:58 PM,82.0,72.1,72,29.87,10.0,Calm,Calm,-,N/A,,Scattered Clouds,0,2013-07-10 23:58:00
8:58 PM,80.1,69.3,69,29.88,10.0,Calm,Calm,-,N/A,,Mostly Cloudy,0,2013-07-11 00:58:00
9:58 PM,76.3,71.8,86,29.88,10.0,Calm,Calm,-,N/A,,Clear,0,2013-07-11 01:58:00
10:58 PM,76.1,70.5,83,29.88,10.0,Calm,Calm,-,N/A,,Mostly Cloudy,0,2013-07-11 02:58:00
11:58 PM,76.5,69.3,78,29.85,10.0,Calm,Calm,-,N/A,,Scattered Clouds,0,2013-07-11 03:58:00